Year,Month,Day,Hour,Minute,Value (Times are PST for temperature in C)
2010,07,31,00,00,18.60
2010,07,31,00,01,18.50
2010,07,31,00,02,18.50
2010,07,31,00,03,18.50
2010,07,31,00,04,18.40
2010,07,31,00,05,18.40
2010,07,31,00,06,18.40
2010,07,31,00,07,18.40
2010,07,31,00,08,18.30
2010,07,31,00,09,18.30
2010,07,31,00,10,18.30
2010,07,31,00,11,18.30
2010,07,31,00,12,18.30
2010,07,31,00,13,18.30
2010,07,31,00,14,18.30
2010,07,31,00,15,18.20
2010,07,31,00,16,18.20
2010,07,31,00,17,18.20
2010,07,31,00,18,18.20
2010,07,31,00,19,18.10
2010,07,31,00,20,18.10
2010,07,31,00,21,18.00
2010,07,31,00,22,18.00
2010,07,31,00,23,17.90
2010,07,31,00,24,17.90
2010,07,31,00,25,17.90
2010,07,31,00,26,17.80
2010,07,31,00,27,17.80
2010,07,31,00,28,17.70
2010,07,31,00,29,17.70
2010,07,31,00,30,17.70
2010,07,31,00,31,17.60
2010,07,31,00,32,17.60
2010,07,31,00,33,17.50
2010,07,31,00,34,17.50
2010,07,31,00,35,17.40
2010,07,31,00,36,17.40
2010,07,31,00,37,17.40
2010,07,31,00,38,17.30
2010,07,31,00,39,17.30
2010,07,31,00,40,17.20
2010,07,31,00,41,17.20
2010,07,31,00,42,17.20
2010,07,31,00,43,17.10
2010,07,31,00,44,17.10
2010,07,31,00,45,17.00
2010,07,31,00,46,17.00
2010,07,31,00,47,16.90
2010,07,31,00,48,16.90
2010,07,31,00,49,16.90
2010,07,31,00,50,16.80
2010,07,31,00,51,16.80
2010,07,31,00,52,16.80
2010,07,31,00,53,16.70
2010,07,31,00,54,16.70
2010,07,31,00,55,16.60
2010,07,31,00,56,16.60
2010,07,31,00,57,16.60
2010,07,31,00,58,16.50
2010,07,31,00,59,16.50
2010,07,31,01,00,16.40
2010,07,31,01,01,16.40
2010,07,31,01,02,16.40
2010,07,31,01,03,16.30
2010,07,31,01,04,16.30
2010,07,31,01,05,16.30
2010,07,31,01,06,16.20
2010,07,31,01,07,16.20
2010,07,31,01,08,16.20
2010,07,31,01,09,16.10
2010,07,31,01,10,16.10
2010,07,31,01,11,16.10
2010,07,31,01,12,16.00
2010,07,31,01,13,16.00
2010,07,31,01,14,15.90
2010,07,31,01,15,15.90
2010,07,31,01,16,15.90
2010,07,31,01,17,15.90
2010,07,31,01,18,15.90
2010,07,31,01,19,15.80
2010,07,31,01,20,15.80
2010,07,31,01,21,15.80
2010,07,31,01,22,15.70
2010,07,31,01,23,15.70
2010,07,31,01,24,15.70
2010,07,31,01,25,15.60
2010,07,31,01,26,15.60
2010,07,31,01,27,15.60
2010,07,31,01,28,15.50
2010,07,31,01,29,15.50
2010,07,31,01,30,15.40
2010,07,31,01,31,15.40
2010,07,31,01,32,15.40
2010,07,31,01,33,15.30
2010,07,31,01,34,15.30
2010,07,31,01,35,15.30
2010,07,31,01,36,15.20
2010,07,31,01,37,15.20
2010,07,31,01,38,15.10
2010,07,31,01,39,15.10
2010,07,31,01,40,15.00
2010,07,31,01,41,15.00
2010,07,31,01,42,15.00
2010,07,31,01,43,15.00
2010,07,31,01,44,14.90
2010,07,31,01,45,14.80
2010,07,31,01,46,14.70
2010,07,31,01,47,14.60
2010,07,31,01,48,14.50
2010,07,31,01,49,14.40
2010,07,31,01,50,14.40
2010,07,31,01,51,14.30
2010,07,31,01,52,14.30
2010,07,31,01,53,14.30
2010,07,31,01,54,14.20
2010,07,31,01,55,14.20
2010,07,31,01,56,14.20
2010,07,31,01,57,14.20
2010,07,31,01,58,14.10
2010,07,31,01,59,14.10
2010,07,31,02,00,14.10
2010,07,31,02,01,14.10
2010,07,31,02,02,14.10
2010,07,31,02,03,14.10
2010,07,31,02,04,14.10
2010,07,31,02,05,14.10
2010,07,31,02,06,14.10
2010,07,31,02,07,14.10
2010,07,31,02,08,14.10
2010,07,31,02,09,14.10
2010,07,31,02,10,14.10
2010,07,31,02,11,14.10
2010,07,31,02,12,14.10
2010,07,31,02,13,14.10
2010,07,31,02,14,14.10
2010,07,31,02,15,14.20
2010,07,31,02,16,14.20
2010,07,31,02,17,14.20
2010,07,31,02,18,14.20
2010,07,31,02,19,14.20
2010,07,31,02,20,14.30
2010,07,31,02,21,14.30
2010,07,31,02,22,14.40
2010,07,31,02,23,14.50
2010,07,31,02,24,14.60
2010,07,31,02,25,14.70
2010,07,31,02,26,14.70
2010,07,31,02,27,14.80
2010,07,31,02,28,14.80
2010,07,31,02,29,14.80
2010,07,31,02,30,14.80
2010,07,31,02,31,14.80
2010,07,31,02,32,14.80
2010,07,31,02,33,14.80
2010,07,31,02,34,14.80
2010,07,31,02,35,14.70
2010,07,31,02,36,14.70
2010,07,31,02,37,14.70
2010,07,31,02,38,14.60
2010,07,31,02,39,14.60
2010,07,31,02,40,14.50
2010,07,31,02,41,14.50
2010,07,31,02,42,14.40
2010,07,31,02,43,14.40
2010,07,31,02,44,14.30
2010,07,31,02,45,14.30
2010,07,31,02,46,14.20
2010,07,31,02,47,14.20
2010,07,31,02,48,14.10
2010,07,31,02,49,14.10
2010,07,31,02,50,14.00
2010,07,31,02,51,14.00
2010,07,31,02,52,13.90
2010,07,31,02,53,13.90
2010,07,31,02,54,13.90
2010,07,31,02,55,13.80
2010,07,31,02,56,13.80
2010,07,31,02,57,13.80
2010,07,31,02,58,13.80
2010,07,31,02,59,13.70
2010,07,31,03,00,13.70
2010,07,31,03,01,13.70
2010,07,31,03,02,13.60
2010,07,31,03,03,13.60
2010,07,31,03,04,13.60
2010,07,31,03,05,13.50
2010,07,31,03,06,13.40
2010,07,31,03,07,13.40
2010,07,31,03,08,13.30
2010,07,31,03,09,13.20
2010,07,31,03,10,13.20
2010,07,31,03,11,13.20
2010,07,31,03,12,13.10
2010,07,31,03,13,13.10
2010,07,31,03,14,13.10
2010,07,31,03,15,13.10
2010,07,31,03,16,13.00
2010,07,31,03,17,13.00
2010,07,31,03,18,12.90
2010,07,31,03,19,12.90
2010,07,31,03,20,12.90
2010,07,31,03,21,12.90
2010,07,31,03,22,12.90
2010,07,31,03,23,12.80
2010,07,31,03,24,12.80
2010,07,31,03,25,12.80
2010,07,31,03,26,12.70
2010,07,31,03,27,12.70
2010,07,31,03,28,12.70
2010,07,31,03,29,12.60
2010,07,31,03,30,12.60
2010,07,31,03,31,12.60
2010,07,31,03,32,12.50
2010,07,31,03,33,12.50
2010,07,31,03,34,12.50
2010,07,31,03,35,12.40
2010,07,31,03,36,12.30
2010,07,31,03,37,12.20
2010,07,31,03,38,12.20
2010,07,31,03,39,12.10
2010,07,31,03,40,12.10
2010,07,31,03,41,12.10
2010,07,31,03,42,12.10
2010,07,31,03,43,12.10
2010,07,31,03,44,12.00
2010,07,31,03,45,12.00
2010,07,31,03,46,12.00
2010,07,31,03,47,11.90
2010,07,31,03,48,11.90
2010,07,31,03,49,11.90
2010,07,31,03,50,11.90
2010,07,31,03,51,11.80
2010,07,31,03,52,11.80
2010,07,31,03,53,11.80
2010,07,31,03,54,11.80
2010,07,31,03,55,11.80
2010,07,31,03,56,11.80
2010,07,31,03,57,11.80
2010,07,31,03,58,11.70
2010,07,31,03,59,11.70
2010,07,31,04,00,11.70
2010,07,31,04,01,11.70
2010,07,31,04,02,11.70
2010,07,31,04,03,11.70
2010,07,31,04,04,11.70
2010,07,31,04,05,11.70
2010,07,31,04,06,11.70
2010,07,31,04,07,11.70
2010,07,31,04,08,11.60
2010,07,31,04,09,11.60
2010,07,31,04,10,11.60
2010,07,31,04,11,11.60
2010,07,31,04,12,11.60
2010,07,31,04,13,11.60
2010,07,31,04,14,11.60
2010,07,31,04,15,11.60
2010,07,31,04,16,11.60
2010,07,31,04,17,11.60
2010,07,31,04,18,11.70
2010,07,31,04,19,11.70
2010,07,31,04,20,11.70
2010,07,31,04,21,11.70
2010,07,31,04,22,11.70
2010,07,31,04,23,11.70
2010,07,31,04,24,11.70
2010,07,31,04,25,11.70
2010,07,31,04,26,11.70
2010,07,31,04,27,11.80
2010,07,31,04,28,11.80
2010,07,31,04,29,11.80
2010,07,31,04,30,11.80
2010,07,31,04,31,11.80
2010,07,31,04,32,11.80
2010,07,31,04,33,11.80
2010,07,31,04,34,11.80
2010,07,31,04,35,11.80
2010,07,31,04,36,11.80
2010,07,31,04,37,11.80
2010,07,31,04,38,11.80
2010,07,31,04,39,11.80
2010,07,31,04,40,11.80
2010,07,31,04,41,11.90
2010,07,31,04,42,11.90
2010,07,31,04,43,11.90
2010,07,31,04,44,11.90
2010,07,31,04,45,11.90
2010,07,31,04,46,11.90
2010,07,31,04,47,11.90
2010,07,31,04,48,11.90
2010,07,31,04,49,12.00
2010,07,31,04,50,12.00
2010,07,31,04,51,12.00
2010,07,31,04,52,12.00
2010,07,31,04,53,12.00
2010,07,31,04,54,12.00
2010,07,31,04,55,12.00
2010,07,31,04,56,12.00
2010,07,31,04,57,12.00
2010,07,31,04,58,12.00
2010,07,31,04,59,12.00
2010,07,31,05,00,12.10
2010,07,31,05,01,12.10
2010,07,31,05,02,12.10
2010,07,31,05,03,12.10
2010,07,31,05,04,12.10
2010,07,31,05,05,12.10
2010,07,31,05,06,12.10
2010,07,31,05,07,12.10
2010,07,31,05,08,12.10
2010,07,31,05,09,12.10
2010,07,31,05,10,12.10
2010,07,31,05,11,12.10
2010,07,31,05,12,12.10
2010,07,31,05,13,12.10
2010,07,31,05,14,12.10
2010,07,31,05,15,12.10
2010,07,31,05,16,12.10
2010,07,31,05,17,12.10
2010,07,31,05,18,12.10
2010,07,31,05,19,12.10
2010,07,31,05,20,12.10
2010,07,31,05,21,12.10
2010,07,31,05,22,12.10
2010,07,31,05,23,12.10
2010,07,31,05,24,12.10
2010,07,31,05,25,12.10
2010,07,31,05,26,12.10
2010,07,31,05,27,12.10
2010,07,31,05,28,12.10
2010,07,31,05,29,12.10
2010,07,31,05,30,12.10
2010,07,31,05,31,12.10
2010,07,31,05,32,12.10
2010,07,31,05,33,12.10
2010,07,31,05,34,12.10
2010,07,31,05,35,12.10
2010,07,31,05,36,12.10
2010,07,31,05,37,12.10
2010,07,31,05,38,12.10
2010,07,31,05,39,12.00
2010,07,31,05,40,12.00
2010,07,31,05,41,12.00
2010,07,31,05,42,12.00
2010,07,31,05,43,12.00
2010,07,31,05,44,12.10
2010,07,31,05,45,12.10
2010,07,31,05,46,12.10
2010,07,31,05,47,12.10
2010,07,31,05,48,12.10
2010,07,31,05,49,12.10
2010,07,31,05,50,12.10
2010,07,31,05,51,12.10
2010,07,31,05,52,12.10
2010,07,31,05,53,12.10
2010,07,31,05,54,12.10
2010,07,31,05,55,12.10
2010,07,31,05,56,12.10
2010,07,31,05,57,12.10
2010,07,31,05,58,12.00
2010,07,31,05,59,12.00
2010,07,31,06,00,12.00
2010,07,31,06,01,12.00
2010,07,31,06,02,11.90
2010,07,31,06,03,11.90
2010,07,31,06,04,11.90
2010,07,31,06,05,11.90
2010,07,31,06,06,11.90
2010,07,31,06,07,11.90
2010,07,31,06,08,11.90
2010,07,31,06,09,11.90
2010,07,31,06,10,11.90
2010,07,31,06,11,11.80
2010,07,31,06,12,11.80
2010,07,31,06,13,11.80
2010,07,31,06,14,11.80
2010,07,31,06,15,11.80
2010,07,31,06,16,11.80
2010,07,31,06,17,11.80
2010,07,31,06,18,11.70
2010,07,31,06,19,11.70
2010,07,31,06,20,11.70
2010,07,31,06,21,11.70
2010,07,31,06,22,11.70
2010,07,31,06,23,11.70
2010,07,31,06,24,11.70
2010,07,31,06,25,11.70
2010,07,31,06,26,11.60
2010,07,31,06,27,11.60
2010,07,31,06,28,11.60
2010,07,31,06,29,11.60
2010,07,31,06,30,11.60
2010,07,31,06,31,11.60
2010,07,31,06,32,11.60
2010,07,31,06,33,11.70
2010,07,31,06,34,11.70
2010,07,31,06,35,11.70
2010,07,31,06,36,11.70
2010,07,31,06,37,11.70
2010,07,31,06,38,11.70
2010,07,31,06,39,11.70
2010,07,31,06,40,11.70
2010,07,31,06,41,11.70
2010,07,31,06,42,11.70
2010,07,31,06,43,11.80
2010,07,31,06,44,11.80
2010,07,31,06,45,11.80
2010,07,31,06,46,11.80
2010,07,31,06,47,11.80
2010,07,31,06,48,11.80
2010,07,31,06,49,11.90
2010,07,31,06,50,11.90
2010,07,31,06,51,11.90
2010,07,31,06,52,11.90
2010,07,31,06,53,12.00
2010,07,31,06,54,12.00
2010,07,31,06,55,12.10
2010,07,31,06,56,12.10
2010,07,31,06,57,12.10
2010,07,31,06,58,12.10
2010,07,31,06,59,12.20
2010,07,31,07,00,12.20
2010,07,31,07,01,12.20
2010,07,31,07,02,12.20
2010,07,31,07,03,12.20
2010,07,31,07,04,12.30
2010,07,31,07,05,12.30
2010,07,31,07,06,12.30
2010,07,31,07,07,12.30
2010,07,31,07,08,12.40
2010,07,31,07,09,12.40
2010,07,31,07,10,12.40
2010,07,31,07,11,12.50
2010,07,31,07,12,12.50
2010,07,31,07,13,12.60
2010,07,31,07,14,12.60
2010,07,31,07,15,12.70
2010,07,31,07,16,12.70
2010,07,31,07,17,12.80
2010,07,31,07,18,12.80
2010,07,31,07,19,12.90
2010,07,31,07,20,12.90
2010,07,31,07,21,13.00
2010,07,31,07,22,13.00
2010,07,31,07,23,13.10
2010,07,31,07,24,13.10
2010,07,31,07,25,13.20
2010,07,31,07,26,13.20
2010,07,31,07,27,13.30
2010,07,31,07,28,13.30
2010,07,31,07,29,13.40
2010,07,31,07,30,13.40
2010,07,31,07,31,13.40
2010,07,31,07,32,13.50
2010,07,31,07,33,13.60
2010,07,31,07,34,13.60
2010,07,31,07,35,13.60
2010,07,31,07,36,13.70
2010,07,31,07,37,13.70
2010,07,31,07,38,13.80
2010,07,31,07,39,13.80
2010,07,31,07,40,13.90
2010,07,31,07,41,14.00
2010,07,31,07,42,14.10
2010,07,31,07,43,14.10
2010,07,31,07,44,14.20
2010,07,31,07,45,14.20
2010,07,31,07,46,14.30
2010,07,31,07,47,14.40
2010,07,31,07,48,14.40
2010,07,31,07,49,14.50
2010,07,31,07,50,14.60
2010,07,31,07,51,14.70
2010,07,31,07,52,14.70
2010,07,31,07,53,14.70
2010,07,31,07,54,14.80
2010,07,31,07,55,14.90
2010,07,31,07,56,15.00
2010,07,31,07,57,15.00
2010,07,31,07,58,15.00
2010,07,31,07,59,15.00
2010,07,31,08,00,15.00
2010,07,31,08,01,15.10
2010,07,31,08,02,15.20
2010,07,31,08,03,15.20
2010,07,31,08,04,15.30
2010,07,31,08,05,15.40
2010,07,31,08,06,15.50
2010,07,31,08,07,15.60
2010,07,31,08,08,15.70
2010,07,31,08,09,15.80
2010,07,31,08,10,15.90
2010,07,31,08,11,15.90
2010,07,31,08,12,16.00
2010,07,31,08,13,16.00
2010,07,31,08,14,16.10
2010,07,31,08,15,16.10
2010,07,31,08,16,16.10
2010,07,31,08,17,16.20
2010,07,31,08,18,16.30
2010,07,31,08,19,16.40
2010,07,31,08,20,16.50
2010,07,31,08,21,16.60
2010,07,31,08,22,16.70
2010,07,31,08,23,16.80
2010,07,31,08,24,16.80
2010,07,31,08,25,16.90
2010,07,31,08,26,17.00
2010,07,31,08,27,17.10
2010,07,31,08,28,17.10
2010,07,31,08,29,17.20
2010,07,31,08,30,17.20
2010,07,31,08,31,17.20
2010,07,31,08,32,17.20
2010,07,31,08,33,17.20
2010,07,31,08,34,17.20
2010,07,31,08,35,17.30
2010,07,31,08,36,17.30
2010,07,31,08,37,17.30
2010,07,31,08,38,17.30
2010,07,31,08,39,17.30
2010,07,31,08,40,17.40
2010,07,31,08,41,17.40
2010,07,31,08,42,17.30
2010,07,31,08,43,17.30
2010,07,31,08,44,17.40
2010,07,31,08,45,17.40
2010,07,31,08,46,17.40
2010,07,31,08,47,17.40
2010,07,31,08,48,17.40
2010,07,31,08,49,17.40
2010,07,31,08,50,17.50
2010,07,31,08,51,17.50
2010,07,31,08,52,17.50
2010,07,31,08,53,17.50
2010,07,31,08,54,17.50
2010,07,31,08,55,17.50
2010,07,31,08,56,17.50
2010,07,31,08,57,17.50
2010,07,31,08,58,17.60
2010,07,31,08,59,17.70
2010,07,31,09,00,17.70
2010,07,31,09,01,17.80
2010,07,31,09,02,17.80
2010,07,31,09,03,17.70
2010,07,31,09,04,17.70
2010,07,31,09,05,17.60
2010,07,31,09,06,17.60
2010,07,31,09,07,17.60
2010,07,31,09,08,17.60
2010,07,31,09,09,17.60
2010,07,31,09,10,17.60
2010,07,31,09,11,17.60
2010,07,31,09,12,17.60
2010,07,31,09,13,17.60
2010,07,31,09,14,17.70
2010,07,31,09,15,17.80
2010,07,31,09,16,17.80
2010,07,31,09,17,17.80
2010,07,31,09,18,17.90
2010,07,31,09,19,17.90
2010,07,31,09,20,17.90
2010,07,31,09,21,18.00
2010,07,31,09,22,18.00
2010,07,31,09,23,18.00
2010,07,31,09,24,18.00
2010,07,31,09,25,17.90
2010,07,31,09,26,17.80
2010,07,31,09,27,17.80
2010,07,31,09,28,17.80
2010,07,31,09,29,17.90
2010,07,31,09,30,17.90
2010,07,31,09,31,17.90
2010,07,31,09,32,18.00
2010,07,31,09,33,18.10
2010,07,31,09,34,18.10
2010,07,31,09,35,18.10
2010,07,31,09,36,18.10
2010,07,31,09,37,18.10
2010,07,31,09,38,18.10
2010,07,31,09,39,18.10
2010,07,31,09,40,18.10
2010,07,31,09,41,18.10
2010,07,31,09,42,18.10
2010,07,31,09,43,18.10
2010,07,31,09,44,18.10
2010,07,31,09,45,18.10
2010,07,31,09,46,18.00
2010,07,31,09,47,17.80
2010,07,31,09,48,17.60
2010,07,31,09,49,17.50
2010,07,31,09,50,17.40
2010,07,31,09,51,17.40
2010,07,31,09,52,17.30
2010,07,31,09,53,17.30
2010,07,31,09,54,17.30
2010,07,31,09,55,17.20
2010,07,31,09,56,17.20
2010,07,31,09,57,17.00
2010,07,31,09,58,16.90
2010,07,31,09,59,16.90
2010,07,31,10,00,16.80
2010,07,31,10,01,16.80
2010,07,31,10,02,16.80
2010,07,31,10,03,16.90
2010,07,31,10,04,16.90
2010,07,31,10,05,17.00
2010,07,31,10,06,17.10
2010,07,31,10,07,17.10
2010,07,31,10,08,17.10
2010,07,31,10,09,17.20
2010,07,31,10,10,17.10
2010,07,31,10,11,17.00
2010,07,31,10,12,16.80
2010,07,31,10,13,16.70
2010,07,31,10,14,16.60
2010,07,31,10,15,16.50
2010,07,31,10,16,16.50
2010,07,31,10,17,16.50
2010,07,31,10,18,16.60
2010,07,31,10,19,16.70
2010,07,31,10,20,16.80
2010,07,31,10,21,16.90
2010,07,31,10,22,17.00
2010,07,31,10,23,17.20
2010,07,31,10,24,17.30
2010,07,31,10,25,17.40
2010,07,31,10,26,17.60
2010,07,31,10,27,17.80
2010,07,31,10,28,17.90
2010,07,31,10,29,17.90
2010,07,31,10,30,17.90
2010,07,31,10,31,18.00
2010,07,31,10,32,18.00
2010,07,31,10,33,18.10
2010,07,31,10,34,18.10
2010,07,31,10,35,18.10
2010,07,31,10,36,18.10
2010,07,31,10,37,18.10
2010,07,31,10,38,18.20
2010,07,31,10,39,18.20
2010,07,31,10,40,18.30
2010,07,31,10,41,18.30
2010,07,31,10,42,18.30
2010,07,31,10,43,18.30
2010,07,31,10,44,18.30
2010,07,31,10,45,18.30
2010,07,31,10,46,18.20
2010,07,31,10,47,17.80
2010,07,31,10,48,17.40
2010,07,31,10,49,17.10
2010,07,31,10,50,16.80
2010,07,31,10,51,16.60
2010,07,31,10,52,16.30
2010,07,31,10,53,16.00
2010,07,31,10,54,15.90
2010,07,31,10,55,15.90
2010,07,31,10,56,15.90
2010,07,31,10,57,15.90
2010,07,31,10,58,16.00
2010,07,31,10,59,16.00
2010,07,31,11,00,16.00
2010,07,31,11,01,15.90
2010,07,31,11,02,15.80
2010,07,31,11,03,15.60
2010,07,31,11,04,15.40
2010,07,31,11,05,15.30
2010,07,31,11,06,15.30
2010,07,31,11,07,15.40
2010,07,31,11,08,15.40
2010,07,31,11,09,15.30
2010,07,31,11,10,15.20
2010,07,31,11,11,15.20
2010,07,31,11,12,15.10
2010,07,31,11,13,15.10
2010,07,31,11,14,15.10
2010,07,31,11,15,15.10
2010,07,31,11,16,15.20
2010,07,31,11,17,15.30
2010,07,31,11,18,15.30
2010,07,31,11,19,15.50
2010,07,31,11,20,15.50
2010,07,31,11,21,15.60
2010,07,31,11,22,15.70
2010,07,31,11,23,15.80
2010,07,31,11,24,15.90
2010,07,31,11,25,15.90
2010,07,31,11,26,15.90
2010,07,31,11,27,15.80
2010,07,31,11,28,15.60
2010,07,31,11,29,15.50
2010,07,31,11,30,15.30
2010,07,31,11,31,15.10
2010,07,31,11,32,15.00
2010,07,31,11,33,15.00
2010,07,31,11,34,14.90
2010,07,31,11,35,14.70
2010,07,31,11,36,14.70
2010,07,31,11,37,14.60
2010,07,31,11,38,14.60
2010,07,31,11,39,14.70
2010,07,31,11,40,14.80
2010,07,31,11,41,14.70
2010,07,31,11,42,14.60
2010,07,31,11,43,14.50
2010,07,31,11,44,14.50
2010,07,31,11,45,14.50
2010,07,31,11,46,14.40
2010,07,31,11,47,14.40
2010,07,31,11,48,14.50
2010,07,31,11,49,14.60
2010,07,31,11,50,14.70
2010,07,31,11,51,14.80
2010,07,31,11,52,14.90
2010,07,31,11,53,15.00
2010,07,31,11,54,15.10
2010,07,31,11,55,15.20
2010,07,31,11,56,15.30
2010,07,31,11,57,15.40
2010,07,31,11,58,15.50
2010,07,31,11,59,15.60
2010,07,31,12,00,15.50
2010,07,31,12,01,15.50
2010,07,31,12,02,15.40
2010,07,31,12,03,15.30
2010,07,31,12,04,15.30
2010,07,31,12,05,15.30
2010,07,31,12,06,15.30
2010,07,31,12,07,15.30
2010,07,31,12,08,15.40
2010,07,31,12,09,15.50
2010,07,31,12,10,15.70
2010,07,31,12,11,15.90
2010,07,31,12,12,16.00
2010,07,31,12,13,16.20
2010,07,31,12,14,16.40
2010,07,31,12,15,16.50
2010,07,31,12,16,16.60
2010,07,31,12,17,16.70
2010,07,31,12,18,16.80
2010,07,31,12,19,16.90
2010,07,31,12,20,16.80
2010,07,31,12,21,16.60
2010,07,31,12,22,16.40
2010,07,31,12,23,16.00
2010,07,31,12,24,15.50
2010,07,31,12,25,15.10
2010,07,31,12,26,15.00
2010,07,31,12,27,15.00
2010,07,31,12,28,15.00
2010,07,31,12,29,15.00
2010,07,31,12,30,14.90
2010,07,31,12,31,14.80
2010,07,31,12,32,14.80
2010,07,31,12,33,14.70
2010,07,31,12,34,14.70
2010,07,31,12,35,14.70
2010,07,31,12,36,14.80
2010,07,31,12,37,14.80
2010,07,31,12,38,14.90
2010,07,31,12,39,15.00
2010,07,31,12,40,15.00
2010,07,31,12,41,15.00
2010,07,31,12,42,15.00
2010,07,31,12,43,15.00
2010,07,31,12,44,14.90
2010,07,31,12,45,14.80
2010,07,31,12,46,14.90
2010,07,31,12,47,15.00
2010,07,31,12,48,15.00
2010,07,31,12,49,15.00
2010,07,31,12,50,15.10
2010,07,31,12,51,15.10
2010,07,31,12,52,15.00
2010,07,31,12,53,14.70
2010,07,31,12,54,14.50
2010,07,31,12,55,14.30
2010,07,31,12,56,14.20
2010,07,31,12,57,14.20
2010,07,31,12,58,14.30
2010,07,31,12,59,14.30
2010,07,31,13,00,14.40
2010,07,31,13,01,14.60
2010,07,31,13,02,14.60
2010,07,31,13,03,14.70
2010,07,31,13,04,14.80
2010,07,31,13,05,14.80
2010,07,31,13,06,14.80
2010,07,31,13,07,14.80
2010,07,31,13,08,14.80
2010,07,31,13,09,14.80
2010,07,31,13,10,14.70
2010,07,31,13,11,14.50
2010,07,31,13,12,14.30
2010,07,31,13,13,14.10
2010,07,31,13,14,14.00
2010,07,31,13,15,14.10
2010,07,31,13,16,14.10
2010,07,31,13,17,14.30
2010,07,31,13,18,14.30
2010,07,31,13,19,14.40
2010,07,31,13,20,14.40
2010,07,31,13,21,14.40
2010,07,31,13,22,14.40
2010,07,31,13,23,14.50
2010,07,31,13,24,14.60
2010,07,31,13,25,14.60
2010,07,31,13,26,14.60
2010,07,31,13,27,14.60
2010,07,31,13,28,14.70
2010,07,31,13,29,14.70
2010,07,31,13,30,14.70
2010,07,31,13,31,14.70
2010,07,31,13,32,14.70
2010,07,31,13,33,14.80
2010,07,31,13,34,14.80
2010,07,31,13,35,14.80
2010,07,31,13,36,14.90
2010,07,31,13,37,15.00
2010,07,31,13,38,15.00
2010,07,31,13,39,15.00
2010,07,31,13,40,15.00
2010,07,31,13,41,15.00
2010,07,31,13,42,15.00
2010,07,31,13,43,15.00
2010,07,31,13,44,15.00
2010,07,31,13,45,15.00
2010,07,31,13,46,15.00
2010,07,31,13,47,14.90
2010,07,31,13,48,14.80
2010,07,31,13,49,14.70
2010,07,31,13,50,14.60
2010,07,31,13,51,14.50
2010,07,31,13,52,14.30
2010,07,31,13,53,14.10
2010,07,31,13,54,14.10
2010,07,31,13,55,14.00
2010,07,31,13,56,14.00
2010,07,31,13,57,13.90
2010,07,31,13,58,14.00
2010,07,31,13,59,14.00
2010,07,31,14,00,14.00
2010,07,31,14,01,14.00
2010,07,31,14,02,14.00
2010,07,31,14,03,14.00
2010,07,31,14,04,14.00
2010,07,31,14,05,14.00
2010,07,31,14,06,13.90
2010,07,31,14,07,13.90
2010,07,31,14,08,13.80
2010,07,31,14,09,13.70
2010,07,31,14,10,13.60
2010,07,31,14,11,13.60
2010,07,31,14,12,13.60
2010,07,31,14,13,13.60
2010,07,31,14,14,13.60
2010,07,31,14,15,13.60
2010,07,31,14,16,13.60
2010,07,31,14,17,13.60
2010,07,31,14,18,13.70
2010,07,31,14,19,13.70
2010,07,31,14,20,13.70
2010,07,31,14,21,13.80
2010,07,31,14,22,13.80
2010,07,31,14,23,13.80
2010,07,31,14,24,13.90
2010,07,31,14,25,14.00
2010,07,31,14,26,14.10
2010,07,31,14,27,14.10
2010,07,31,14,28,14.00
2010,07,31,14,29,14.00
2010,07,31,14,30,14.00
2010,07,31,14,31,14.10
2010,07,31,14,32,14.10
2010,07,31,14,33,14.20
2010,07,31,14,34,14.30
2010,07,31,14,35,14.30
2010,07,31,14,36,14.30
2010,07,31,14,37,14.20
2010,07,31,14,38,14.10
2010,07,31,14,39,14.00
2010,07,31,14,40,13.90
2010,07,31,14,41,13.70
2010,07,31,14,42,13.60
2010,07,31,14,43,13.50
2010,07,31,14,44,13.40
2010,07,31,14,45,13.40
2010,07,31,14,46,13.40
2010,07,31,14,47,13.30
2010,07,31,14,48,13.40
2010,07,31,14,49,13.40
2010,07,31,14,50,13.40
2010,07,31,14,51,13.50
2010,07,31,14,52,13.60
2010,07,31,14,53,13.60
2010,07,31,14,54,13.60
2010,07,31,14,55,13.70
2010,07,31,14,56,13.70
2010,07,31,14,57,13.80
2010,07,31,14,58,13.90
2010,07,31,14,59,14.00
2010,07,31,15,00,14.10
2010,07,31,15,01,14.20
2010,07,31,15,02,14.30
2010,07,31,15,03,14.50
2010,07,31,15,04,14.70
2010,07,31,15,05,14.80
2010,07,31,15,06,15.00
2010,07,31,15,07,14.90
2010,07,31,15,08,14.80
2010,07,31,15,09,14.70
2010,07,31,15,10,14.70
2010,07,31,15,11,14.70
2010,07,31,15,12,14.60
2010,07,31,15,13,14.40
2010,07,31,15,14,14.30
2010,07,31,15,15,14.30
2010,07,31,15,16,14.30
2010,07,31,15,17,14.30
2010,07,31,15,18,14.20
2010,07,31,15,19,14.10
2010,07,31,15,20,14.10
2010,07,31,15,21,14.10
2010,07,31,15,22,14.10
2010,07,31,15,23,14.00
2010,07,31,15,24,13.90
2010,07,31,15,25,13.90
2010,07,31,15,26,13.90
2010,07,31,15,27,14.00
2010,07,31,15,28,14.00
2010,07,31,15,29,14.10
2010,07,31,15,30,14.10
2010,07,31,15,31,14.10
2010,07,31,15,32,14.10
2010,07,31,15,33,14.10
2010,07,31,15,34,14.20
2010,07,31,15,35,14.20
2010,07,31,15,36,14.00
2010,07,31,15,37,13.90
2010,07,31,15,38,13.80
2010,07,31,15,39,13.80
2010,07,31,15,40,13.80
2010,07,31,15,41,13.80
2010,07,31,15,42,13.90
2010,07,31,15,43,14.00
2010,07,31,15,44,14.10
2010,07,31,15,45,14.10
2010,07,31,15,46,14.20
2010,07,31,15,47,14.30
2010,07,31,15,48,14.30
2010,07,31,15,49,14.40
2010,07,31,15,50,14.30
2010,07,31,15,51,14.30
2010,07,31,15,52,14.40
2010,07,31,15,53,14.50
2010,07,31,15,54,14.60
2010,07,31,15,55,14.70
2010,07,31,15,56,14.80
2010,07,31,15,57,14.80
2010,07,31,15,58,15.00
2010,07,31,15,59,15.00
2010,07,31,16,00,15.00
2010,07,31,16,01,15.00
2010,07,31,16,02,15.20
2010,07,31,16,03,15.30
2010,07,31,16,04,15.30
2010,07,31,16,05,15.20
2010,07,31,16,06,15.00
2010,07,31,16,07,15.00
2010,07,31,16,08,15.00
2010,07,31,16,09,15.00
2010,07,31,16,10,14.90
2010,07,31,16,11,14.90
2010,07,31,16,12,14.90
2010,07,31,16,13,15.00
2010,07,31,16,14,15.00
2010,07,31,16,15,14.90
2010,07,31,16,16,15.00
2010,07,31,16,17,15.00
2010,07,31,16,18,15.00
2010,07,31,16,19,15.00
2010,07,31,16,20,15.00
2010,07,31,16,21,15.00
2010,07,31,16,22,14.90
2010,07,31,16,23,14.90
2010,07,31,16,24,14.90
2010,07,31,16,25,15.00
2010,07,31,16,26,15.00
2010,07,31,16,27,15.00
2010,07,31,16,28,15.20
2010,07,31,16,29,15.40
2010,07,31,16,30,15.50
2010,07,31,16,31,15.70
2010,07,31,16,32,15.90
2010,07,31,16,33,16.00
2010,07,31,16,34,16.20
2010,07,31,16,35,16.30
2010,07,31,16,36,16.50
2010,07,31,16,37,16.60
2010,07,31,16,38,16.80
2010,07,31,16,39,16.90
2010,07,31,16,40,17.00
2010,07,31,16,41,17.10
2010,07,31,16,42,17.10
2010,07,31,16,43,17.10
2010,07,31,16,44,17.10
2010,07,31,16,45,17.20
2010,07,31,16,46,17.20
2010,07,31,16,47,17.30
2010,07,31,16,48,17.40
2010,07,31,16,49,17.50
2010,07,31,16,50,17.60
2010,07,31,16,51,17.70
2010,07,31,16,52,17.60
2010,07,31,16,53,17.60
2010,07,31,16,54,17.50
2010,07,31,16,55,17.40
2010,07,31,16,56,17.30
2010,07,31,16,57,17.20
2010,07,31,16,58,17.10
2010,07,31,16,59,17.10
2010,07,31,17,00,17.10
2010,07,31,17,01,17.10
2010,07,31,17,02,17.10
2010,07,31,17,03,17.10
2010,07,31,17,04,17.00
2010,07,31,17,05,17.00
2010,07,31,17,06,16.90
2010,07,31,17,07,16.80
2010,07,31,17,08,16.80
2010,07,31,17,09,16.80
2010,07,31,17,10,16.80
2010,07,31,17,11,16.90
2010,07,31,17,12,16.90
2010,07,31,17,13,17.00
2010,07,31,17,14,17.00
2010,07,31,17,15,17.10
2010,07,31,17,16,17.20
2010,07,31,17,17,17.30
2010,07,31,17,18,17.40
2010,07,31,17,19,17.50